| time (UTC) | temp C | wind direction | speed KPH | gust KPH | rain 1hr cm | rain 24hr cm | rain mn cm | humidity % | barometer mb |
| 20260504150513 | 15 | 298 | 17.7 | 29.0 | 0.00 | 0.00 | 0.00 | 64 | 1015.2 |
| 20260504140514 | 16 | 237 | 12.9 | 24.1 | 0.00 | 0.03 | 0.00 | 61 | 1015.6 |
| 20260504130511 | 16 | 333 | 12.9 | 24.1 | 0.00 | 0.30 | 0.00 | 57 | 1015.8 |
| 20260504110511 | 16 | 261 | 9.7 | 19.3 | 0.00 | 0.71 | 0.00 | 59 | 1015.7 |
| 20260504100506 | 13 | 277 | 6.4 | 17.7 | 0.00 | 0.71 | 0.00 | 72 | 1015.9 |
| 20260504100408 | 13 | 255 | 4.8 | 11.3 | 0.00 | 0.71 | 0.00 | 76 | 1015.8 |
| 20260504082000 | 12 | 267 | 4.8 | 12.9 | 0.00 | 0.71 | 0.00 | 85 | 1015.6 |
| 20260504081153 | 12 | 274 | 6.4 | 12.9 | 0.00 | 0.71 | 0.00 | 86 | 1015.5 |
| 20260504050444 | 10 | 141 | 0.0 | 3.2 | 0.00 | 0.71 | 0.00 | 83 | 1014.0 |
| 20260504044944 | 10 | 141 | 1.6 | 3.2 | 0.00 | 0.71 | 0.00 | 83 | 1014.1 |
| 20260504043445 | 10 | 141 | 0.0 | 3.2 | 0.00 | 0.71 | 0.00 | 84 | 1014.1 |
| 20260504041943 | 10 | 141 | 1.6 | 6.4 | 0.00 | 0.71 | 0.00 | 84 | 1014.0 |
| 20260504040442 | 10 | 141 | 3.2 | 8.0 | 0.00 | 0.71 | 0.00 | 83 | 1014.0 |
| 20260504034942 | 10 | 248 | 1.6 | 4.8 | 0.00 | 0.71 | 0.00 | 83 | 1014.1 |
| 20260504033440 | 10 | 248 | 1.6 | 6.4 | 0.00 | 0.74 | 0.00 | 84 | 1014.1 |
| 20260504031939 | 10 | 248 | 1.6 | 4.8 | 0.00 | 0.74 | 0.00 | 85 | 1014.1 |
| 20260504030438 | 10 | 248 | 0.0 | 0.0 | 0.00 | 0.74 | 0.00 | 85 | 1014.1 |
| 20260504024936 | 10 | 248 | 0.0 | 0.0 | 0.00 | 0.74 | 0.00 | 85 | 1014.1 |
| 20260504023437 | 10 | 248 | 0.0 | 3.2 | 0.00 | 0.76 | 0.00 | 85 | 1014.1 |
| 20260504021934 | 10 | 248 | 0.0 | 1.6 | 0.00 | 0.76 | 0.00 | 86 | 1014.1 |
| 20260504021122 | 10 | 248 | 0.0 | 3.2 | 0.00 | 0.76 | 0.00 | 86 | 1014.1 |
| 20260504020331 | 10 | 248 | 3.2 | 4.8 | 0.00 | 0.76 | 0.00 | 86 | 1014.3 |
| 20260504013432 | 10 | 248 | 3.2 | 4.8 | 0.00 | 0.76 | 0.00 | 86 | 1014.2 |
| 20260504013243 | 10 | 248 | 4.8 | 6.4 | 0.00 | 0.76 | 0.00 | 86 | 1014.4 |
| 20260504011956 | 10 | 248 | 4.8 | 6.4 | 0.00 | 0.76 | 0.00 | 86 | 1014.4 |
| 20260504004929 | 11 | 248 | 1.6 | 4.8 | 0.00 | 0.76 | 0.00 | 86 | 1014.5 |
| 20260504003426 | 11 | 248 | 3.2 | 6.4 | 0.00 | 0.76 | 0.00 | 86 | 1014.5 |
| 20260504001926 | 11 | 248 | 3.2 | 6.4 | 0.00 | 0.76 | 0.00 | 86 | 1014.5 |
| 20260504001130 | 11 | 248 | 4.8 | 8.0 | 0.00 | 0.76 | 0.00 | 86 | 1014.6 |
| 20260503235626 | 11 | 248 | 4.8 | 8.0 | 0.00 | 0.76 | 0.00 | 86 | 1014.6 |
| 20260503234115 | 11 | 240 | 6.4 | 8.0 | 0.00 | 0.76 | 0.00 | 86 | 1014.6 |
| 20260503231918 | 11 | 234 | 4.8 | 8.0 | 0.00 | 0.76 | 0.00 | 86 | 1014.6 |
| 20260503231113 | 11 | 243 | 6.4 | 11.3 | 0.00 | 0.79 | 0.00 | 86 | 1014.6 |
| 20260503225609 | 11 | 234 | 6.4 | 11.3 | 0.00 | 0.99 | 0.79 | 86 | 1014.7 |
| 20260503223418 | 10 | 234 | 1.6 | 6.4 | 0.00 | 1.02 | 0.79 | 86 | 1014.8 |
| 20260503221918 | 11 | 234 | 4.8 | 8.0 | 0.00 | 1.07 | 0.79 | 86 | 1014.7 |
| 20260503220414 | 11 | 226 | 6.4 | 11.3 | 0.00 | 1.07 | 0.79 | 86 | 1014.7 |
| 20260503214914 | 11 | 244 | 8.0 | 12.9 | 0.00 | 1.07 | 0.79 | 86 | 1014.7 |
| 20260503213414 | 11 | 223 | 8.0 | 12.9 | 0.00 | 1.09 | 0.79 | 86 | 1014.6 |
| 20260503211915 | 11 | 211 | 6.4 | 9.7 | 0.00 | 1.09 | 0.79 | 86 | 1014.5 |
| 20260503210414 | 11 | 230 | 6.4 | 12.9 | 0.00 | 1.09 | 0.79 | 85 | 1014.4 |
| 20260503204911 | 11 | 242 | 8.0 | 14.5 | 0.00 | 1.09 | 0.79 | 85 | 1014.2 |
| 20260503204107 | 11 | 237 | 8.0 | 17.7 | 0.00 | 1.09 | 0.79 | 84 | 1014.0 |
| 20260503201906 | 11 | 236 | 16.1 | 20.9 | 0.00 | 1.09 | 0.79 | 83 | 1013.9 |
| 20260503201053 | 11 | 241 | 14.5 | 20.9 | 0.00 | 1.09 | 0.79 | 83 | 1013.7 |
| 20260503194906 | 12 | 244 | 14.5 | 20.9 | 0.00 | 1.09 | 0.79 | 82 | 1013.5 |
| 20260503193406 | 12 | 259 | 16.1 | 24.1 | 0.00 | 1.09 | 0.79 | 81 | 1013.3 |
| 20260503191906 | 13 | 233 | 12.9 | 22.5 | 0.00 | 1.09 | 0.79 | 79 | 1013.0 |
| 20260503190405 | 13 | 266 | 16.1 | 25.7 | 0.00 | 1.09 | 0.79 | 78 | 1012.9 |
| 20260503184906 | 13 | 246 | 16.1 | 25.7 | 0.00 | 1.09 | 0.79 | 76 | 1012.9 |
| 20260503183406 | 14 | 249 | 17.7 | 27.4 | 0.00 | 1.09 | 0.79 | 73 | 1012.7 |
| 20260503181906 | 15 | 237 | 19.3 | 27.4 | 0.00 | 1.09 | 0.79 | 72 | 1012.8 |
| 20260503181109 | 15 | 246 | 14.5 | 25.7 | 0.00 | 1.09 | 0.79 | 72 | 1012.7 |
| 20260503174906 | 15 | 239 | 12.9 | 25.7 | 0.00 | 1.09 | 0.79 | 74 | 1012.7 |
| 20260503174054 | 15 | 230 | 19.3 | 29.0 | 0.00 | 1.09 | 0.79 | 70 | 1012.7 |
| 20260503171906 | 16 | 236 | 17.7 | 27.4 | 0.00 | 1.09 | 0.79 | 70 | 1012.7 |